Terminal Aerodrome Forecast
Issued by NWS Buffalo, NY

Home | Current Version | Previous Version | Text Only | Print | Product List | Glossary On
Versions: 1 2 3 4 5 6 7 8 9 10 11 12 13 14 15 16 17 18 19 20 21 22 23 24 25 26 27 28 29 30 31 32 33 34 35 36 37 38 39 40 41 42 43 44 45 46 47 48 49 50
000
FTUS41 KBUF 021120
TAFBUF
TAF
KBUF 021120Z 0212/0312 24009KT P6SM VCSH OVC070
     FM021400 21009KT P6SM BKN040
     FM021900 23013G20KT P6SM SCT035
     FM030300 23010KT 6SM BR VCSH BKN035
     FM030800 25009KT P6SM BKN060=

USA.gov is the U.S. government's official web portal to all federal, state and local government web resources and services.